CW3001 Weather Reports


time (UTC)temp
F
wind
direction
speed
knots
gust
knots
rain 1hr
in
rain 24hr
in
rain mn
in
humidity
%
barometer
mb
20260504040227 54 149 0.0 0.0 0.00 0.20 0.01 94 1011.8
20260504040214 54 151 0.0 0.0 0.00 0.20 0.01 94 1011.7
20260504035146 54 149 0.0 0.0 0.00 0.20 0.01 94 1011.7
20260504034924 54 149 0.0 0.0 0.00 0.20 0.01 94 1011.8
20260504034430 54 149 0.0 0.0 0.00 0.20 0.01 94 1011.7
20260504033647 54 151 0.0 0.0 0.00 0.20 0.01 94 1011.7
20260504033157 54 149 0.0 0.0 0.00 0.20 0.01 94 1011.7
20260504032941 54 149 0.0 0.0 0.00 0.20 0.01 94 1011.7
20260504032145 54 151 0.0 0.0 0.00 0.20 0.01 94 1011.7
20260504031647 54 151 0.0 0.0 0.00 0.20 0.01 94 1011.8
20260504031144 54 151 0.0 0.0 0.00 0.20 0.01 94 1011.8
20260504030645 54 151 0.0 0.0 0.00 0.20 0.01 94 1011.9
20260504030145 54 149 0.0 0.0 0.00 0.20 0.01 94 1011.9
20260504025924 53 149 0.0 0.0 0.00 0.20 0.01 94 1011.9
20260504025143 53 151 0.0 0.0 0.00 0.20 0.01 94 1011.9
20260504024914 53 151 0.0 0.0 0.00 0.20 0.01 94 1011.8
20260504024144 53 151 0.0 0.0 0.00 0.20 0.01 94 1011.8
20260504023643 53 149 0.0 0.0 0.00 0.20 0.01 93 1011.8
20260504023144 53 148 0.0 0.0 0.00 0.20 0.01 93 1011.7
20260504022643 53 148 0.0 0.0 0.00 0.20 0.01 94 1011.6
20260504022144 53 149 0.0 0.0 0.00 0.20 0.01 94 1011.6
20260504021929 53 149 0.0 0.0 0.00 0.20 0.01 94 1011.6
20260504021142 52 149 0.0 0.0 0.00 0.20 0.01 93 1011.6
20260504020655 52 149 0.0 0.0 0.00 0.20 0.01 93 1011.6
20260504020142 52 149 0.0 0.0 0.00 0.20 0.01 93 1011.6
20260504015643 52 148 0.0 0.0 0.00 0.20 0.01 93 1011.6
20260504015453 52 148 0.0 0.0 0.00 0.20 0.01 93 1011.7
20260504015009 52 148 0.0 0.0 0.00 0.20 0.01 93 1011.7
20260504015003 52 148 0.0 0.0 0.00 0.20 0.01 93 1011.7
20260504013642 52 148 0.0 0.0 0.00 0.20 0.01 93 1011.7
20260504013234 51 149 0.0 0.0 0.00 0.20 0.01 93 1011.5
20260504013206 51 148 0.0 0.0 0.00 0.20 0.01 93 1011.6
20260504012141 51 149 0.0 0.0 0.00 0.20 0.01 93 1011.7
20260504011643 51 148 0.0 0.0 0.00 0.20 0.01 93 1011.6
20260504011143 51 148 0.0 0.0 0.00 0.20 0.01 93 1011.4
20260504010642 52 148 0.0 0.0 0.00 0.20 0.01 93 1011.5
20260504010141 52 149 0.0 0.0 0.00 0.20 0.01 93 1011.5
20260504005642 52 148 0.0 0.0 0.00 0.20 0.01 93 1011.4
20260504005141 52 148 0.0 0.0 0.00 0.20 0.01 93 1011.5
20260504004655 53 148 0.0 0.0 0.00 0.20 0.01 93 1011.5
20260504004140 53 148 0.0 0.0 0.00 0.20 0.01 93 1011.4
20260504003640 53 148 0.0 0.0 0.00 0.20 0.01 93 1011.4
20260504003141 53 148 0.0 0.0 0.00 0.20 0.01 93 1011.4
20260504002640 53 148 0.0 0.0 0.00 0.20 0.01 93 1011.4
20260504002141 53 148 0.0 0.0 0.00 0.20 0.01 93 1011.5
20260504001641 53 148 0.0 0.0 0.00 0.20 0.01 93 1011.6
20260504001140 53 148 0.0 0.0 0.00 0.20 0.01 93 1011.5
20260504000639 53 148 0.0 0.0 0.00 0.20 0.01 93 1011.4
20260504000139 53 148 0.0 0.0 0.00 0.20 0.01 93 1011.5
20260503235639 53 148 0.0 0.0 0.00 0.20 0.01 93 1011.5
20260503235139 53 148 0.0 0.0 0.00 0.20 0.01 93 1011.5
20260503234640 53 148 0.0 0.0 0.00 0.20 0.01 93 1011.6
20260503234139 53 148 0.0 0.0 0.00 0.20 0.01 93 1011.6
20260503233849 53 148 0.0 0.0 0.00 0.20 0.01 93 1011.7
20260503233730 53 148 0.0 0.0 0.00 0.20 0.01 93 1011.7
20260503232638 53 148 0.0 0.0 0.00 0.20 0.01 93 1011.6
20260503232143 53 148 0.0 0.0 0.00 0.20 0.01 93 1011.5
20260503231638 53 148 0.0 0.0 0.00 0.20 0.01 93 1011.6
20260503231139 53 148 0.0 0.0 0.01 0.20 0.01 93 1011.6
20260503230638 53 148 0.0 0.0 0.01 0.20 0.01 92 1011.6
20260503230138 53 148 0.0 0.0 0.01 0.20 0.01 92 1011.6
20260503225639 53 148 0.0 0.0 0.01 0.20 0.01 93 1011.7
20260503225138 53 148 0.0 0.0 0.01 0.20 0.01 92 1011.8
20260503224636 53 148 0.0 0.0 0.01 0.20 0.01 92 1011.8
20260503224137 53 149 0.0 0.0 0.01 0.20 0.01 92 1011.9
20260503223637 53 148 0.0 0.0 0.01 0.21 0.01 92 1011.7
20260503223137 53 148 0.0 0.0 0.01 0.21 0.01 92 1011.7
20260503222642 53 149 0.0 0.0 0.01 0.22 0.01 92 1011.8
20260503222434 53 148 0.0 0.0 0.01 0.22 0.01 92 1011.8
20260503221638 54 148 0.0 0.0 0.01 0.23 0.01 92 1011.7
20260503221137 54 148 0.0 0.0 0.00 0.23 0.00 92 1011.8
20260503220637 54 148 0.0 0.0 0.00 0.24 0.00 92 1011.7
20260503220136 54 148 0.0 0.0 0.00 0.24 0.00 92 1011.8
20260503215733 54 148 0.0 0.0 0.00 0.24 0.24 92 1011.8
20260503215149 54 148 0.0 0.0 0.00 0.25 0.24 91 1011.8
20260503214955 54 149 0.0 0.0 0.00 0.26 0.24 92 1011.7
20260503214151 54 147 0.0 0.0 0.00 0.26 0.24 91 1011.6
20260503214053 55 148 0.0 0.0 0.00 0.27 0.24 92 1011.9
20260503213721 55 147 0.0 0.0 0.00 0.27 0.24 92 1011.7
20260503212713 55 142 0.0 0.0 0.00 0.28 0.24 91 1011.8
20260503212659 55 147 0.0 0.0 0.00 0.28 0.24 92 1011.9
20260503211918 55 142 0.0 0.0 0.00 0.28 0.24 91 1011.7
20260503211137 55 142 0.0 0.0 0.00 0.28 0.24 92 1011.7
20260503210634 55 142 0.0 0.0 0.00 0.29 0.24 92 1011.7
20260503210135 56 142 0.0 0.0 0.00 0.29 0.24 92 1011.6
20260503205636 56 142 0.0 0.0 0.00 0.29 0.24 92 1011.5
20260503205135 56 142 0.0 0.0 0.00 0.30 0.24 91 1011.5
20260503204648 56 142 0.0 0.0 0.00 0.30 0.24 91 1011.6
20260503204502 56 142 0.0 0.9 0.00 0.31 0.24 91 1011.6
20260503203635 56 142 0.0 2.6 0.00 0.31 0.24 91 1011.6
20260503203150 56 142 0.0 4.3 0.00 0.31 0.24 92 1011.6
20260503202635 56 142 1.7 4.3 0.00 0.32 0.24 92 1011.6
20260503202422 56 144 2.6 4.3 0.00 0.33 0.24 91 1011.6
20260503201634 56 145 3.5 4.3 0.00 0.34 0.24 91 1011.6
20260503201134 56 148 2.6 3.5 0.00 0.37 0.24 91 1011.6
20260503200634 56 148 2.6 3.5 0.00 0.37 0.24 91 1011.6
20260503200133 56 148 0.9 3.5 0.00 0.37 0.24 91 1011.6
20260503195634 56 151 1.7 3.5 0.00 0.37 0.24 91 1011.7
20260503195133 56 151 1.7 3.5 0.00 0.40 0.24 91 1011.6
20260503194634 56 154 2.6 3.5 0.00 0.40 0.24 91 1011.6
20260503194150 56 165 0.0 1.7 0.11 0.40 0.24 91 1011.6
20260503193646 56 165 0.0 1.7 0.11 0.40 0.24 91 1011.5
20260503193134 56 165 0.0 2.6 0.11 0.40 0.24 91 1011.5
20260503192913 56 165 0.9 3.5 0.11 0.40 0.24 91 1011.4
20260503192132 56 164 1.7 3.5 0.11 0.40 0.24 91 1011.4
20260503191632 56 148 1.7 4.3 0.11 0.40 0.24 91 1011.4
20260503191130 56 145 1.7 4.3 0.11 0.40 0.24 91 1011.4
20260503190736 56 161 2.6 3.5 0.11 0.40 0.24 90 1011.3
20260503190712 56 162 1.7 3.5 0.11 0.40 0.24 91 1011.2
20260503185630 56 162 0.0 0.0 0.11 0.29 0.24 90 1011.1
20260503185129 57 162 0.0 0.0 0.11 0.29 0.24 90 1011.1
20260503184914 57 162 0.0 0.0 0.11 0.29 0.24 91 1011.0
20260503184432 56 162 0.0 2.6 0.00 0.29 0.13 90 1010.9
20260503183653 56 162 0.0 2.6 0.00 0.29 0.13 90 1011.0
20260503183130 56 162 0.0 2.6 0.00 0.29 0.13 90 1011.1
20260503182632 57 165 0.9 2.6 0.00 0.29 0.13 90 1011.2
20260503182130 57 243 0.0 0.0 0.01 0.29 0.13 90 1011.2
20260503181631 56 243 0.0 0.0 0.01 0.29 0.13 89 1011.3
20260503181130 56 243 0.0 0.0 0.01 0.29 0.13 89 1011.3
20260503180631 57 243 0.0 1.7 0.01 0.29 0.13 89 1011.4
20260503180130 57 244 0.0 3.5 0.01 0.29 0.13 89 1011.4
20260503175629 57 244 1.7 5.2 0.01 0.28 0.13 89 1011.4
20260503175143 57 259 1.7 5.2 0.01 0.28 0.13 89 1011.4
20260503174630 57 320 0.0 4.3 0.01 0.28 0.13 89 1011.2
20260503174130 57 323 2.6 4.3 0.01 0.28 0.13 88 1011.4
20260503173707 58 262 3.5 7.8 0.01 0.28 0.13 87 1011.3
20260503173653 57 300 1.7 5.2 0.01 0.28 0.13 88 1011.3
20260503172633 58 219 4.3 8.7 0.01 0.28 0.13 86 1011.3
20260503172129 59 269 1.7 13.0 0.00 0.28 0.13 84 1011.3
20260503171630 60 303 4.3 13.0 0.00 0.28 0.13 83 1011.3
20260503171130 61 288 7.0 13.0 0.00 0.28 0.13 86 1011.2
20260503170629 62 213 7.8 13.0 0.00 0.28 0.13 85 1010.8
20260503170130 62 169 7.0 12.2 0.00 0.28 0.13 84 1010.7
20260503160128 62 164 5.2 12.2 0.00 0.28 0.13 85 1010.3
20260503150626 62 171 6.1 10.4 0.00 0.28 0.13 86 1010.2
20260503150413 62 162 3.5 9.6 0.00 0.28 0.13 87 1010.3
20260503140124 61 169 5.2 10.4 0.01 0.28 0.13 88 1010.9
20260503131123 61 202 5.2 8.7 0.01 0.28 0.12 89 1011.0
20260503130906 61 189 5.2 7.8 0.02 0.28 0.12 89 1011.0
20260503130124 61 204 4.3 8.7 0.02 0.28 0.12 89 1011.0
20260503120121 61 188 3.5 5.2 0.02 0.26 0.10 90 1011.1
20260503110613 60 204 2.6 5.2 0.02 0.24 0.09 89 1011.3
20260503110115 60 202 2.6 8.7 0.02 0.24 0.09 89 1011.3
20260503100110 60 237 3.5 7.8 0.01 0.22 0.06 90 1011.5
20260503090104 62 243 4.3 8.7 0.00 0.21 0.06 86 1011.2
20260503081601 61 186 3.5 7.8 0.00 0.21 0.06 88 1010.9
20260503081102 61 199 3.5 6.1 0.00 0.21 0.06 89 1011.0
20260503080602 61 188 3.5 6.1 0.00 0.21 0.06 90 1010.9
20260503072602 60 178 1.7 3.5 0.00 0.21 0.06 90 1010.6
20260503072349 60 176 1.7 3.5 0.00 0.21 0.06 90 1010.7
20260503071606 60 178 2.6 3.5 0.00 0.21 0.06 90 1010.6
20260503071102 60 173 2.6 2.6 0.00 0.21 0.06 91 1010.7
20260503070602 60 175 0.0 2.6 0.00 0.21 0.06 91 1010.5
20260503070358 60 173 1.7 4.3 0.00 0.21 0.06 91 1010.5
20260503055104 56 169 0.0 0.0 0.00 0.21 0.06 93 1010.5
20260503054602 56 169 0.0 0.0 0.00 0.21 0.06 93 1010.6
20260503054102 56 169 0.0 0.0 0.00 0.21 0.06 93 1010.5
20260503053622 56 169 0.0 0.0 0.00 0.21 0.06 93 1010.6
20260503053105 56 169 0.0 0.0 0.00 0.21 0.06 93 1010.6
20260503052846 56 169 0.0 0.0 0.00 0.21 0.06 93 1010.6
20260503052103 56 169 0.0 0.0 0.00 0.21 0.06 93 1010.5
20260503051602 55 169 0.0 0.0 0.00 0.21 0.06 92 1010.7
20260503051349 55 169 0.0 0.0 0.00 0.21 0.06 92 1010.8
20260503050601 55 169 0.0 0.0 0.00 0.21 0.06 92 1010.7
20260503045602 55 169 0.0 0.0 0.00 0.21 0.06 92 1010.8
20260503045344 55 171 0.0 2.6 0.00 0.21 0.06 92 1010.8
20260503044627 55 169 0.0 3.5 0.00 0.21 0.06 92 1010.9
20260503044101 55 173 1.7 3.5 0.00 0.21 0.06 92 1011.1
20260503043602 55 179 1.7 1.7 0.00 0.21 0.06 92 1011.0
20260503043104 55 179 0.9 2.6 0.00 0.21 0.06 92 1011.0
20260503042602 55 179 1.7 2.6 0.01 0.21 0.06 92 1011.1
20260503042343 55 179 1.7 2.6 0.01 0.21 0.06 92 1011.1
20260503041602 55 179 1.7 2.6 0.01 0.21 0.06 92 1011.1
20260503041103 55 179 0.0 0.0 0.01 0.21 0.06 92 1011.1
20260503040602 55 179 0.0 0.0 0.01 0.21 0.06 92 1011.0